GFSFLT2_sfc_thetae_159.txt.gz
Theta_e
338 338 339 339 338 338 337 337 336 337 338 340 338 339 336 334 334 333 330 328 326 327 328 329 327 325 319
336 333 334 336 336 335 334 333 331 330 331 333 332 334 338 337 337 335 333 331 328 328 329 327 325 324 318
337 335 330 331 332 332 331 328 327 327 327 326 327 331 336 336 337 337 336 334 331 329 328 327 324 317 315
338 338 335 334 332 331 331 329 328 326 325 327 323 326 331 330 333 335 336 332 327 324 322 324 321 318 316
333 335 336 336 334 333 331 330 330 328 324 322 322 322 322 321 322 326 326 326 325 324 323 321 320 318 317
332 332 335 335 335 335 334 334 332 329 328 325 322 322 322 322 321 320 320 322 322 324 324 322 320 318 317
331 332 332 333 334 335 334 334 334 332 329 329 327 326 322 323 322 321 321 321 321 321 321 321 320 320 319
331 331 330 331 333 334 334 334 334 333 331 330 328 328 328 326 325 322 321 321 321 321 321 321 320 320 320
326 329 331 331 333 331 332 334 333 334 333 332 331 329 329 328 327 326 325 324 323 324 322 321 321 320 320
317 320 325 330 330 331 333 334 333 333 333 332 331 330 330 330 329 327 326 324 324 323 323 323 323 321 321
314 314 319 322 325 329 331 334 334 333 333 332 331 331 331 329 329 328 326 325 324 323 323 324 323 323 324
315 315 317 320 323 326 330 333 333 333 333 331 331 330 329 327 326 326 325 325 325 324 324 324 324 324 325
310 315 317 317 321 322 321 327 328 326 326 325 327 328 328 326 326 325 324 322 321 322 320 319 320 322 321
305 311 320 318 315 316 317 318 312 309 309 311 312 314 315 319 319 319 320 320 321 321 316 315 311 311 313
300 310 320 317 314 312 312 307 303 301 302 303 304 307 308 309 308 308 309 312 313 317 316 315 309 307 310
296 300 303 303 301 301 301 301 299 297 296 298 298 299 300 301 300 302 304 305 306 309 313 314 315 312 307

GFSFLT2_sfc_thetae_162.txt.gz
Theta_e
338 338 339 339 339 338 338 338 338 338 337 340 340 339 335 334 334 332 330 328 327 328 329 330 328 326 318
336 332 333 335 336 335 334 333 331 330 331 332 332 335 339 338 336 336 334 331 329 328 329 328 325 324 317
335 333 329 331 332 331 330 328 326 326 326 325 327 330 335 337 337 338 336 334 332 329 328 327 325 318 315
338 336 334 334 332 330 330 328 327 325 324 326 322 325 329 332 334 336 336 333 328 323 322 324 321 320 317
333 333 333 335 334 332 330 328 328 328 324 322 321 321 322 321 322 324 325 325 324 322 322 321 321 319 317
331 330 331 332 334 333 333 332 331 329 325 325 322 321 320 320 320 319 319 320 320 322 322 321 321 319 317
330 330 330 331 331 332 334 334 333 331 329 328 327 325 324 323 322 320 319 319 319 320 321 320 320 319 318
330 329 330 330 330 331 331 333 334 333 331 330 329 327 327 326 325 324 323 322 321 321 321 321 320 319 319
326 328 329 329 331 330 330 331 332 334 332 332 330 329 329 329 327 326 325 324 323 323 322 323 323 323 322
313 313 321 328 329 329 330 333 333 333 333 332 331 330 331 330 329 328 326 325 324 323 323 323 323 323 323
313 316 313 319 322 327 329 333 333 332 332 332 331 331 331 329 328 328 327 325 324 324 323 324 324 323 324
310 316 314 318 323 323 326 328 328 327 328 330 329 329 329 327 326 326 325 325 324 324 323 323 323 324 322
305 312 316 316 316 315 316 311 310 312 313 315 317 317 319 323 322 320 323 322 321 322 319 318 316 318 317
299 308 320 312 313 313 306 303 303 304 305 306 308 310 310 312 309 310 312 315 319 320 316 313 307 308 311
296 306 314 313 309 307 303 298 298 299 300 301 301 302 303 305 305 306 306 307 308 312 312 313 306 301 308
293 297 301 302 299 299 299 297 295 295 295 296 296 296 297 298 297 299 301 301 302 302 305 308 312 310 306

GFSFLT2_sfc_thetae_165.txt.gz
Theta_e
338 338 339 340 339 338 339 339 338 338 338 339 339 338 334 333 333 332 330 328 327 328 329 330 329 326 318
335 332 333 335 335 335 334 333 331 331 332 332 333 336 338 337 336 336 334 331 329 329 329 328 325 324 316
334 332 328 330 331 331 330 328 326 326 325 325 325 330 334 337 338 337 337 335 332 330 328 327 325 319 316
337 334 331 332 332 330 329 327 326 325 323 325 322 324 328 330 334 336 336 333 328 323 321 323 320 319 318
333 332 330 331 332 332 330 327 327 326 323 322 320 321 321 320 323 323 322 323 323 322 321 320 320 319 318
332 331 330 330 330 329 332 331 329 328 328 322 323 322 321 320 320 319 318 319 319 320 320 320 320 319 318
330 329 329 329 329 329 330 331 332 330 329 328 327 324 324 324 323 322 321 321 319 319 319 319 320 320 319
329 328 328 328 330 329 329 330 331 332 331 330 329 327 326 326 325 324 324 323 322 322 321 322 322 321 321
325 327 328 328 329 328 329 330 332 331 331 331 331 329 329 328 327 326 325 324 323 323 322 323 323 323 322
314 313 315 324 327 327 328 332 332 333 333 331 331 330 331 330 329 328 327 325 325 324 323 323 323 323 324
309 315 312 318 320 323 325 328 331 331 331 331 331 331 331 330 328 327 327 325 324 323 323 323 324 321 324
307 314 314 319 318 321 316 314 316 317 319 323 322 322 327 327 326 325 324 324 324 323 323 322 323 322 319
303 309 313 317 314 308 305 304 306 308 310 313 313 314 317 314 314 313 318 321 321 321 319 317 313 315 314
297 305 317 310 306 302 300 299 300 302 303 305 306 307 308 310 309 309 310 312 316 317 314 311 305 306 308
294 309 312 308 306 301 299 296 296 298 299 300 300 301 302 303 303 303 304 304 304 308 307 306 301 299 303
292 301 304 303 296 297 296 294 294 294 294 295 295 295 295 296 296 298 299 298 301 299 302 304 304 306 301

GFSFLT2_sfc_thetae_171.txt.gz
Theta_e
338 339 340 340 339 338 338 338 337 337 338 338 339 336 333 332 332 332 330 329 328 328 328 329 327 325 324
340 332 334 335 335 335 334 333 331 331 332 331 329 334 337 336 336 336 335 333 332 331 331 329 326 325 325
338 335 330 331 331 331 330 327 328 332 330 328 326 328 332 334 334 337 337 336 333 330 329 327 325 328 326
337 338 336 335 335 334 333 332 331 330 329 327 323 323 326 327 330 332 335 332 329 333 331 326 328 327 326
336 337 336 335 335 334 333 332 332 330 330 329 329 327 327 322 327 328 328 328 328 328 328 328 327 326 327
335 335 336 334 334 333 333 332 332 331 329 329 327 326 326 326 326 326 325 324 323 323 324 326 326 325 325
333 334 334 333 333 333 333 332 331 331 331 332 329 329 328 327 326 326 325 324 324 324 323 323 323 324 324
331 332 333 333 333 332 332 332 331 331 330 331 332 331 330 329 328 326 326 325 325 325 325 325 324 325 324
319 325 330 331 331 331 332 332 333 332 332 331 331 331 331 332 329 328 327 327 326 326 326 325 325 326 325
311 317 315 320 326 328 329 332 332 333 334 334 334 333 333 332 332 332 330 330 329 328 327 327 326 326 325
309 316 321 322 321 318 317 318 319 321 327 330 329 328 330 332 330 328 328 328 326 327 326 327 327 326 325
311 318 319 318 312 310 309 308 310 311 315 319 320 320 323 326 322 319 321 324 325 323 322 323 324 323 322
306 315 317 315 309 305 303 302 302 304 307 310 312 312 316 315 313 312 314 318 322 318 321 321 318 315 315
301 307 315 309 303 301 299 298 299 300 301 303 304 305 304 308 307 306 308 310 314 313 314 312 310 310 311
298 309 307 306 305 302 298 295 295 296 297 299 300 300 301 302 302 302 303 305 306 308 308 311 308 305 307
295 305 307 306 302 296 294 294 293 293 294 295 296 297 298 298 298 299 298 300 304 302 304 303 306 306 303

GFSFLT2_sfc_thetae_174.txt.gz
Theta_e
339 340 341 341 338 337 337 338 338 337 337 336 336 335 334 332 332 332 331 329 329 329 328 327 327 326 328
343 334 335 337 336 336 335 334 332 332 333 332 330 333 336 336 336 334 334 333 332 332 331 330 327 327 330
342 337 331 332 332 332 331 329 329 335 334 332 328 329 330 332 333 334 336 337 334 332 330 328 326 331 330
340 341 341 341 340 338 337 336 336 335 334 330 325 324 327 328 330 331 333 333 329 334 334 328 332 331 331
341 342 342 342 341 340 338 337 337 336 336 336 335 334 334 324 332 331 331 329 330 330 330 332 332 332 331
342 341 342 341 341 339 339 338 336 335 335 333 331 332 330 331 330 331 329 329 329 327 327 329 330 330 328
341 341 341 341 340 341 340 336 334 333 333 334 333 332 332 331 329 329 328 328 327 328 328 329 328 328 328
337 339 340 341 341 341 339 335 335 334 333 333 333 333 333 333 332 330 329 329 328 328 329 329 330 329 327
327 333 337 338 338 340 340 336 334 335 336 336 336 335 335 335 333 332 334 334 333 334 332 331 332 331 329
319 325 326 330 335 335 332 332 330 333 334 336 337 336 337 337 335 334 332 331 332 330 329 330 331 329 328
317 323 326 325 325 325 324 319 318 319 322 328 329 330 333 335 334 333 332 332 331 330 329 329 329 328 326
320 323 324 322 320 319 316 313 312 313 315 319 321 323 327 329 326 326 326 327 327 326 324 325 325 322 324
318 322 323 321 317 313 307 305 306 308 310 315 318 318 321 320 317 316 316 318 323 322 321 321 320 319 316
315 319 322 317 312 307 303 300 301 304 306 307 310 310 310 312 310 311 313 315 319 318 317 317 312 313 310
310 316 314 312 310 308 305 300 299 301 302 304 305 306 307 308 308 308 308 309 311 314 314 313 310 308 310
306 315 314 315 311 304 302 299 298 299 299 301 302 303 303 303 302 302 303 305 308 307 310 309 311 308 304